When you browse on this site, cookies collect data to enhance your experience and personalize the content and advertising you see.
Visit our Privacy Policy to learn more. By continuing to use the site, you agree to this use of cookies and data.
  • In Hungary
  • List of Countries
  • For 7 days
  • Water Temperature
  • Satellite Maps
  • Weather Map
  • News
  • Weather Widgets
  • user-avatar
    Login

    Hourly Weather Cornella de Llobregat

    Today, 26 June, Wednesday

    Time Temperature Precipitation Wind Pressure Humidity
    00:00 +27°C° 0 mm 5 mps 764 mmHg 57%
    01:00 +27°C° 0 mm 5 mps 763 mmHg 55%
    02:00 +26°C° 0 mm 5 mps 763 mmHg 54%
    03:00 +26°C° 0 mm 6 mps 763 mmHg 52%
    04:00 +27°C° 0 mm 6 mps 763 mmHg 50%
    05:00 +27°C° 0 mm 6 mps 763 mmHg 47%
    06:00 +28°C° 0 mm 6 mps 764 mmHg 40%
    07:00 +29°C° 0 mm 7 mps 764 mmHg 37%
    08:00 +32°C° 0 mm 7 mps 763 mmHg 34%
    09:00 +34°C° 0 mm 8 mps 763 mmHg 32%
    10:00 +34°C° 0 mm 7 mps 764 mmHg 32%
    11:00 +35°C° 0 mm 7 mps 764 mmHg 32%
    12:00 +35°C° 0 mm 7 mps 764 mmHg 32%
    13:00 +35°C° 0 mm 7 mps 764 mmHg 33%
    14:00 +35°C° 0 mm 6 mps 764 mmHg 33%
    15:00 +35°C° 0 mm 6 mps 764 mmHg 34%
    16:00 +34°C° 0 mm 5 mps 764 mmHg 35%
    17:00 +34°C° 0 mm 5 mps 764 mmHg 36%
    18:00 +33°C° 0 mm 4 mps 764 mmHg 37%
    19:00 +32°C° 0 mm 4 mps 764 mmHg 39%
    20:00 +31°C° 0 mm 3 mps 764 mmHg 41%
    21:00 +30°C° 0 mm 2 mps 764 mmHg 44%
    22:00 +29°C° 0 mm 2 mps 765 mmHg 43%
    23:00 +29°C° 0 mm 2 mps 765 mmHg 43%

    Tomorrow, 27 June, Thursday

    Time Temperature Precipitation Wind Pressure Humidity
    00:00 +29°C° 0 mm 2 mps 765 mmHg 43%
    01:00 +28°C° 0 mm 2 mps 764 mmHg 43%
    02:00 +28°C° 0 mm 2 mps 764 mmHg 43%
    03:00 +28°C° 0 mm 2 mps 764 mmHg 44%
    04:00 +28°C° 0 mm 2 mps 764 mmHg 43%
    05:00 +28°C° 0 mm 2 mps 764 mmHg 43%
    06:00 +28°C° 0 mm 2 mps 764 mmHg 42%
    07:00 +30°C° 0 mm 2 mps 764 mmHg 38%
    08:00 +32°C° 0 mm 2 mps 764 mmHg 34%
    09:00 +34°C° 0 mm 2 mps 764 mmHg 30%
    10:00 +35°C° 0 mm 2 mps 764 mmHg 29%
    11:00 +36°C° 0 mm 2 mps 764 mmHg 28%
    12:00 +37°C° 0 mm 2 mps 764 mmHg 27%
    13:00 +37°C° 0 mm 2 mps 763 mmHg 27%
    14:00 +37°C° 0 mm 2 mps 763 mmHg 27%
    15:00 +37°C° 0 mm 2 mps 763 mmHg 28%
    16:00 +37°C° 0 mm 2 mps 762 mmHg 29%
    17:00 +35°C° 0 mm 1 mps 762 mmHg 31%
    18:00 +34°C° 0 mm 1 mps 762 mmHg 32%
    19:00 +33°C° 0 mm 1 mps 762 mmHg 34%
    20:00 +32°C° 0 mm 1 mps 763 mmHg 37%
    21:00 +31°C° 0 mm 1 mps 763 mmHg 39%
    22:00 +31°C° 0 mm 1 mps 763 mmHg 39%
    23:00 +31°C° 0 mm 1 mps 762 mmHg 39%

    Day after tomorrow, 28 June, Friday

    Time Temperature Precipitation Wind Pressure Humidity
    00:00 +30°C° 0 mm 1 mps 762 mmHg 38%
    01:00 +30°C° 0 mm 2 mps 762 mmHg 38%
    02:00 +30°C° 0 mm 2 mps 761 mmHg 38%
    03:00 +29°C° 0 mm 2 mps 761 mmHg 38%
    04:00 +30°C° 0 mm 2 mps 761 mmHg 37%
    05:00 +30°C° 0 mm 2 mps 761 mmHg 36%
    06:00 +30°C° 0 mm 2 mps 761 mmHg 36%
    07:00 +33°C° 0 mm 3 mps 761 mmHg 32%
    08:00 +35°C° 0 mm 3 mps 761 mmHg 29%
    09:00 +37°C° 0 mm 3 mps 761 mmHg 26%
    10:00 +38°C° 0 mm 4 mps 760 mmHg 24%
    11:00 +40°C° 0 mm 5 mps 760 mmHg 23%
    12:00 +41°C° 0 mm 5 mps 760 mmHg 22%
    13:00 +41°C° 0 mm 5 mps 760 mmHg 22%
    14:00 +41°C° 0 mm 6 mps 759 mmHg 22%
    15:00 +41°C° 0 mm 6 mps 759 mmHg 23%
    16:00 +41°C° 0 mm 5 mps 759 mmHg 24%
    17:00 +40°C° 0 mm 5 mps 759 mmHg 24%
    18:00 +38°C° 0 mm 4 mps 759 mmHg 25%
    19:00 +37°C° 0 mm 4 mps 759 mmHg 26%
    20:00 +36°C° 0 mm 4 mps 759 mmHg 28%
    21:00 +35°C° 0 mm 4 mps 760 mmHg 30%
    22:00 +35°C° 0 mm 4 mps 760 mmHg 30%
    23:00 +34°C° 0 mm 3 mps 760 mmHg 30%

    29 June, Saturday

    Time Temperature Precipitation Wind Pressure Humidity
    00:00 +33°C° 0 mm 3 mps 759 mmHg 30%
    01:00 +33°C° 0 mm 3 mps 759 mmHg 30%
    02:00 +33°C° 0 mm 3 mps 759 mmHg 30%
    03:00 +31°C° 0 mm 3 mps 759 mmHg 30%
    04:00 +31°C° 0 mm 2 mps 759 mmHg 30%
    05:00 +31°C° 0 mm 2 mps 759 mmHg 30%
    06:00 +32°C° 0 mm 1 mps 759 mmHg 30%
    07:00 +34°C° 0 mm 2 mps 759 mmHg 30%
    08:00 +35°C° 0 mm 2 mps 759 mmHg 31%
    09:00 +36°C° 0 mm 2 mps 760 mmHg 32%
    10:00 +36°C° 0 mm 3 mps 760 mmHg 34%
    11:00 +36°C° 0 mm 3 mps 759 mmHg 35%
    12:00 +36°C° 0 mm 3 mps 759 mmHg 37%
    13:00 +36°C° 0 mm 3 mps 759 mmHg 37%
    14:00 +36°C° 0 mm 2 mps 759 mmHg 38%
    15:00 +36°C° 0 mm 2 mps 759 mmHg 39%
    16:00 +36°C° 0 mm 2 mps 760 mmHg 41%
    17:00 +35°C° 0 mm 2 mps 760 mmHg 44%
    18:00 +34°C° 0 mm 2 mps 760 mmHg 46%
    19:00 +34°C° 0 mm 2 mps 760 mmHg 48%
    20:00 +32°C° 0 mm 2 mps 761 mmHg 50%
    21:00 +32°C° 0 mm 1 mps 761 mmHg 52%
    22:00 +31°C° 0 mm 1 mps 761 mmHg 53%
    23:00 +31°C° 0 mm 1 mps 761 mmHg 54%

    30 June, Sunday

    Time Temperature Precipitation Wind Pressure Humidity
    00:00 +30°C° 0 mm 1 mps 761 mmHg 56%
    01:00 +30°C° 0 mm 1 mps 761 mmHg 57%
    02:00 +29°C° 0 mm 1 mps 761 mmHg 59%
    03:00 +29°C° 0 mm 1 mps 761 mmHg 61%
    04:00 +29°C° 0 mm 1 mps 761 mmHg 61%
    05:00 +29°C° 0 mm 1 mps 761 mmHg 60%
    06:00 +30°C° 0 mm 1 mps 762 mmHg 60%
    07:00 +31°C° 0 mm 2 mps 762 mmHg 56%
    08:00 +32°C° 0 mm 2 mps 762 mmHg 53%
    09:00 +34°C° 0 mm 3 mps 762 mmHg 50%
    10:00 +34°C° 0 mm 3 mps 762 mmHg 47%
    11:00 +35°C° 0 mm 3 mps 762 mmHg 44%
    12:00 +36°C° 0 mm 3 mps 762 mmHg 42%
    13:00 +36°C° 0 mm 3 mps 762 mmHg 42%
    14:00 +36°C° 0 mm 3 mps 761 mmHg 42%
    15:00 +35°C° 0 mm 3 mps 761 mmHg 42%
    16:00 +35°C° 0 mm 3 mps 761 mmHg 43%
    17:00 +34°C° 0 mm 3 mps 761 mmHg 44%
    18:00 +34°C° 0 mm 2 mps 761 mmHg 46%
    19:00 +32°C° 0 mm 2 mps 762 mmHg 48%
    20:00 +31°C° 0 mm 2 mps 762 mmHg 50%
    21:00 +31°C° 0 mm 1 mps 762 mmHg 52%
    22:00 +30°C° 0 mm 1 mps 762 mmHg 53%
    23:00 +30°C° 0 mm 1 mps 762 mmHg 53%

    1 July, Monday

    Time Temperature Precipitation Wind Pressure Humidity
    00:00 +28°C° 0 mm 0 mps 762 mmHg 54%
    01:00 +27°C° 0 mm 0 mps 762 mmHg 56%
    02:00 +27°C° 0 mm 0 mps 761 mmHg 57%
    03:00 +27°C° 0 mm 0 mps 761 mmHg 58%
    04:00 +27°C° 0 mm 0 mps 761 mmHg 58%
    05:00 +27°C° 0 mm 0 mps 761 mmHg 58%
    06:00 +27°C° 0 mm 0 mps 762 mmHg 58%
    07:00 +30°C° 0 mm 1 mps 762 mmHg 53%
    08:00 +31°C° 0 mm 2 mps 762 mmHg 48%
    09:00 +32°C° 0 mm 2 mps 761 mmHg 44%
    10:00 +34°C° 0 mm 2 mps 761 mmHg 43%
    11:00 +35°C° 0 mm 3 mps 761 mmHg 42%
    12:00 +35°C° 0 mm 3 mps 761 mmHg 41%
    13:00 +35°C° 0 mm 3 mps 761 mmHg 41%
    14:00 +35°C° 0 mm 3 mps 761 mmHg 41%
    15:00 +35°C° 0 mm 3 mps 760 mmHg 42%
    16:00 +34°C° 0 mm 3 mps 760 mmHg 41%
    17:00 +34°C° 0 mm 3 mps 760 mmHg 39%
    18:00 +32°C° 0 mm 2 mps 760 mmHg 38%
    19:00 +31°C° 0 mm 2 mps 761 mmHg 41%
    20:00 +31°C° 0 mm 1 mps 761 mmHg 44%
    21:00 +30°C° 0 mm 1 mps 761 mmHg 46%
    22:00 +29°C° 0 mm 1 mps 761 mmHg 47%
    23:00 +29°C° 0 mm 1 mps 761 mmHg 48%
    Show more